Time,TemperatureF,DewpointF,PressureIn,WindDirection,WindDirectionDegrees,WindSpeedMPH,WindSpeedGustMPH,Humidity,HourlyPrecipIn,Conditions,Clouds,dailyrainin,SolarRadiationWatts/m^2,SoftwareType,DateUTC
2013-02-06 00:01:00,35.0,4.0,-100.00,SW,216,13.0,27.0,27,-99.99,,,0.00,0.000000,,2013-02-06 07:01:00,
2013-02-06 00:52:00,35.0,6.0,-100.00,SSW,205,15.0,29.0,29,-99.99,,,0.00,0.000000,,2013-02-06 07:52:00,
2013-02-06 01:01:00,35.0,6.0,-100.00,SSW,205,15.0,29.0,29,-99.99,,,0.00,0.000000,,2013-02-06 08:01:00,
2013-02-06 01:53:00,34.0,7.0,-100.00,SSE,153,7.0,27.0,31,-99.99,,,0.00,0.000000,,2013-02-06 08:53:00,
2013-02-06 02:01:00,34.0,7.0,-100.00,SSE,153,7.0,27.0,31,-99.99,,,0.00,0.000000,,2013-02-06 09:01:00,
2013-02-06 02:11:00,34.0,7.0,-100.00,SSE,153,7.0,27.0,31,-99.99,,,0.00,0.000000,,2013-02-06 09:11:00,
2013-02-06 02:21:00,34.0,7.0,-100.00,SSE,153,7.0,27.0,31,-99.99,,,0.00,0.000000,,2013-02-06 09:21:00,
2013-02-06 02:52:00,33.0,6.0,-100.00,SSW,194,7.0,15.0,32,0.00,,,0.00,0.000000,,2013-02-06 09:52:00,
2013-02-06 03:01:00,33.0,6.0,-100.00,SSW,194,7.0,15.0,32,0.00,,,0.00,0.000000,,2013-02-06 10:01:00,
2013-02-06 03:11:00,33.0,6.0,-100.00,SSW,194,7.0,15.0,32,0.00,,,0.00,0.000000,,2013-02-06 10:11:00,
2013-02-06 03:21:00,33.0,6.0,-100.00,SSW,194,7.0,15.0,32,0.00,,,0.00,0.000000,,2013-02-06 10:21:00,
2013-02-06 03:52:00,32.0,7.0,-100.00,SSE,166,6.0,15.0,34,-99.99,,,0.00,0.000000,,2013-02-06 10:52:00,
2013-02-06 04:01:00,32.0,7.0,-100.00,SSE,166,6.0,15.0,34,-99.99,,,0.00,0.000000,,2013-02-06 11:01:00,
2013-02-06 04:11:00,32.0,7.0,-100.00,SSE,166,6.0,15.0,34,-99.99,,,0.00,0.000000,,2013-02-06 11:11:00,
2013-02-06 04:22:00,32.0,7.0,-100.00,SSE,166,6.0,15.0,34,-99.99,,,0.00,0.000000,,2013-02-06 11:22:00,
2013-02-06 04:53:00,33.0,6.0,-100.00,South,185,11.0,19.0,32,-99.99,,,0.00,0.000000,,2013-02-06 11:53:00,
2013-02-06 05:12:00,33.0,6.0,-100.00,South,185,11.0,19.0,32,-99.99,,,0.00,0.000000,,2013-02-06 12:12:00,
2013-02-06 05:22:00,33.0,6.0,-100.00,South,185,11.0,19.0,32,-99.99,,,0.00,0.000000,,2013-02-06 12:22:00,
2013-02-06 05:52:00,33.0,6.0,-100.00,South,184,5.0,16.0,31,-99.99,,,0.00,0.000000,,2013-02-06 12:52:00,
2013-02-06 06:01:00,33.0,6.0,-100.00,South,184,5.0,16.0,31,-99.99,,,0.00,0.000000,,2013-02-06 13:01:00,
2013-02-06 06:52:00,32.0,7.0,-100.00,SSW,213,11.0,21.0,35,-99.99,,,0.00,0.000000,,2013-02-06 13:52:00,
2013-02-06 07:02:00,32.0,7.0,-100.00,SSW,213,11.0,21.0,35,-99.99,,,0.00,0.000000,,2013-02-06 14:02:00,
2013-02-06 07:52:00,31.0,9.0,-100.00,SW,228,10.0,23.0,39,-99.99,,,0.00,5.000000,,2013-02-06 14:52:00,
2013-02-06 08:52:00,31.0,10.0,-100.00,West,259,9.0,22.0,40,-99.99,,,0.00,21.000000,,2013-02-06 15:52:00,
2013-02-06 09:01:00,31.0,10.0,-100.00,West,259,9.0,22.0,40,-99.99,,,0.00,21.000000,,2013-02-06 16:01:00,
2013-02-06 09:11:00,31.0,10.0,-100.00,West,259,9.0,22.0,40,-99.99,,,0.00,21.000000,,2013-02-06 16:11:00,
2013-02-06 09:21:00,31.0,10.0,-100.00,West,259,9.0,22.0,40,-99.99,,,0.00,21.000000,,2013-02-06 16:21:00,
2013-02-06 09:32:00,31.0,10.0,-100.00,West,259,9.0,22.0,40,-99.99,,,0.00,21.000000,,2013-02-06 16:32:00,
2013-02-06 09:52:00,36.0,10.0,-100.00,WSW,244,9.0,22.0,33,0.00,,,0.00,205.000000,,2013-02-06 16:52:00,
2013-02-06 10:11:00,36.0,10.0,-100.00,WSW,244,9.0,22.0,33,0.00,,,0.00,205.000000,,2013-02-06 17:11:00,
2013-02-06 10:21:00,36.0,10.0,-100.00,WSW,244,9.0,22.0,33,0.00,,,0.00,205.000000,,2013-02-06 17:21:00,
2013-02-06 10:32:00,36.0,10.0,-100.00,WSW,244,9.0,22.0,33,0.00,,,0.00,205.000000,,2013-02-06 17:32:00,
2013-02-06 10:52:00,38.0,10.0,-100.00,West,275,7.0,17.0,31,0.00,,,0.00,520.000000,,2013-02-06 17:52:00,
2013-02-06 11:01:00,38.0,10.0,-100.00,West,275,7.0,17.0,31,0.00,,,0.00,520.000000,,2013-02-06 18:01:00,
2013-02-06 11:11:00,38.0,10.0,-100.00,West,275,7.0,17.0,31,0.00,,,0.00,520.000000,,2013-02-06 18:11:00,
2013-02-06 11:23:00,38.0,10.0,-100.00,West,275,7.0,17.0,31,0.00,,,0.00,520.000000,,2013-02-06 18:23:00,
2013-02-06 11:32:00,38.0,10.0,-100.00,West,275,7.0,17.0,31,0.00,,,0.00,520.000000,,2013-02-06 18:32:00,
2013-02-06 11:52:00,37.0,11.0,-100.00,WSW,238,12.0,22.0,33,0.00,,,0.00,617.000000,,2013-02-06 18:52:00,
2013-02-06 12:01:00,37.0,11.0,-100.00,WSW,238,12.0,22.0,33,0.00,,,0.00,617.000000,,2013-02-06 19:01:00,
2013-02-06 12:11:00,37.0,11.0,-100.00,WSW,238,12.0,22.0,33,0.00,,,0.00,617.000000,,2013-02-06 19:11:00,
2013-02-06 12:21:00,37.0,11.0,-100.00,WSW,238,12.0,22.0,33,0.00,,,0.00,617.000000,,2013-02-06 19:21:00,
2013-02-06 12:31:00,37.0,11.0,-100.00,WSW,238,12.0,22.0,33,0.00,,,0.00,617.000000,,2013-02-06 19:31:00,
2013-02-06 12:52:00,38.0,9.0,-100.00,SW,231,16.0,25.0,29,0.00,,,0.00,750.000000,,2013-02-06 19:52:00,
2013-02-06 13:01:00,38.0,9.0,-100.00,SW,231,16.0,25.0,29,0.00,,,0.00,750.000000,,2013-02-06 20:01:00,
2013-02-06 13:11:00,38.0,9.0,-100.00,SW,231,16.0,25.0,29,0.00,,,0.00,750.000000,,2013-02-06 20:11:00,
2013-02-06 13:21:00,38.0,9.0,-100.00,SW,231,16.0,25.0,29,0.00,,,0.00,750.000000,,2013-02-06 20:21:00,
2013-02-06 13:32:00,38.0,9.0,-100.00,SW,231,16.0,25.0,29,0.00,,,0.00,750.000000,,2013-02-06 20:32:00,
2013-02-06 13:52:00,36.0,8.0,-100.00,SW,235,19.0,27.0,31,0.00,,,0.00,476.000000,,2013-02-06 20:52:00,
2013-02-06 14:02:00,36.0,8.0,-100.00,SW,235,19.0,27.0,31,0.00,,,0.00,476.000000,,2013-02-06 21:02:00,
2013-02-06 14:11:00,36.0,8.0,-100.00,SW,235,19.0,27.0,31,0.00,,,0.00,476.000000,,2013-02-06 21:11:00,
2013-02-06 14:21:00,36.0,8.0,-100.00,SW,235,19.0,27.0,31,0.00,,,0.00,476.000000,,2013-02-06 21:21:00,
2013-02-06 14:32:00,36.0,8.0,-100.00,SW,235,19.0,27.0,31,0.00,,,0.00,476.000000,,2013-02-06 21:32:00,
2013-02-06 14:52:00,37.0,7.0,-100.00,WSW,243,15.0,28.0,28,0.00,,,0.00,328.000000,,2013-02-06 21:52:00,
2013-02-06 15:01:00,37.0,7.0,-100.00,WSW,243,15.0,28.0,28,0.00,,,0.00,328.000000,,2013-02-06 22:01:00,
2013-02-06 15:11:00,37.0,7.0,-100.00,WSW,243,15.0,28.0,28,0.00,,,0.00,328.000000,,2013-02-06 22:11:00,
2013-02-06 15:21:00,37.0,7.0,-100.00,WSW,243,15.0,28.0,28,0.00,,,0.00,328.000000,,2013-02-06 22:21:00,
2013-02-06 15:31:00,37.0,7.0,-100.00,WSW,243,15.0,28.0,28,0.00,,,0.00,328.000000,,2013-02-06 22:31:00,
2013-02-06 15:52:00,36.0,10.0,-100.00,WSW,240,12.0,22.0,33,0.00,,,0.00,196.000000,,2013-02-06 22:52:00,
2013-02-06 16:01:00,36.0,10.0,-100.00,WSW,240,12.0,22.0,33,0.00,,,0.00,196.000000,,2013-02-06 23:01:00,
2013-02-06 16:11:00,36.0,10.0,-100.00,WSW,240,12.0,22.0,33,0.00,,,0.00,196.000000,,2013-02-06 23:11:00,
2013-02-06 16:21:00,36.0,10.0,-100.00,WSW,240,12.0,22.0,33,0.00,,,0.00,196.000000,,2013-02-06 23:21:00,
2013-02-06 16:32:00,36.0,10.0,-100.00,WSW,240,12.0,22.0,33,0.00,,,0.00,196.000000,,2013-02-06 23:32:00,
2013-02-06 16:52:00,35.0,13.0,-100.00,WSW,243,13.0,20.0,40,0.00,,,0.00,145.000000,,2013-02-06 23:52:00,
2013-02-06 17:01:00,35.0,13.0,-100.00,WSW,243,13.0,20.0,40,0.00,,,0.00,145.000000,,2013-02-07 00:01:00,
2013-02-06 17:11:00,35.0,13.0,-100.00,WSW,243,13.0,20.0,40,0.00,,,0.00,145.000000,,2013-02-07 00:11:00,
2013-02-06 17:21:00,35.0,13.0,-100.00,WSW,243,13.0,20.0,40,0.00,,,0.00,145.000000,,2013-02-07 00:21:00,
2013-02-06 17:31:00,35.0,13.0,-100.00,WSW,243,13.0,20.0,40,0.00,,,0.00,145.000000,,2013-02-07 00:31:00,
2013-02-06 17:52:00,31.0,15.0,-100.00,WNW,301,6.0,20.0,50,0.00,,,0.00,42.000000,,2013-02-07 00:52:00,
2013-02-06 18:01:00,31.0,15.0,-100.00,WNW,301,6.0,20.0,50,0.00,,,0.00,42.000000,,2013-02-07 01:01:00,
2013-02-06 18:11:00,31.0,15.0,-100.00,WNW,301,6.0,20.0,50,0.00,,,0.00,42.000000,,2013-02-07 01:11:00,
2013-02-06 18:21:00,31.0,15.0,-100.00,WNW,301,6.0,20.0,50,0.00,,,0.00,42.000000,,2013-02-07 01:21:00,
2013-02-06 18:31:00,31.0,15.0,-100.00,WNW,301,6.0,20.0,50,0.00,,,0.00,42.000000,,2013-02-07 01:31:00,
2013-02-06 18:52:00,29.0,14.0,-100.00,SW,229,10.0,16.0,54,0.00,,,0.00,1.000000,,2013-02-07 01:52:00,
2013-02-06 19:01:00,29.0,14.0,-100.00,SW,229,10.0,16.0,54,0.00,,,0.00,1.000000,,2013-02-07 02:01:00,
2013-02-06 19:11:00,29.0,14.0,-100.00,SW,229,10.0,16.0,54,0.00,,,0.00,1.000000,,2013-02-07 02:11:00,
2013-02-06 19:21:00,29.0,14.0,-100.00,SW,229,10.0,16.0,54,0.00,,,0.00,1.000000,,2013-02-07 02:21:00,
2013-02-06 19:31:00,29.0,14.0,-100.00,SW,229,10.0,16.0,54,0.00,,,0.00,1.000000,,2013-02-07 02:31:00,
2013-02-06 20:02:00,30.0,13.0,-100.00,SW,232,12.0,20.0,49,0.00,,,0.00,0.000000,,2013-02-07 03:02:00,
2013-02-06 20:11:00,30.0,13.0,-100.00,SW,232,12.0,20.0,49,0.00,,,0.00,0.000000,,2013-02-07 03:11:00,
2013-02-06 20:21:00,30.0,13.0,-100.00,SW,232,12.0,20.0,49,0.00,,,0.00,0.000000,,2013-02-07 03:21:00,
2013-02-06 20:31:00,30.0,13.0,-100.00,SW,232,12.0,20.0,49,0.00,,,0.00,0.000000,,2013-02-07 03:31:00,
2013-02-06 20:52:00,30.0,12.0,-100.00,WSW,241,13.0,25.0,47,0.00,,,0.00,0.000000,,2013-02-07 03:52:00,
2013-02-06 21:01:00,30.0,12.0,-100.00,WSW,241,13.0,25.0,47,0.00,,,0.00,0.000000,,2013-02-07 04:01:00,
2013-02-06 21:11:00,30.0,12.0,-100.00,WSW,241,13.0,25.0,47,0.00,,,0.00,0.000000,,2013-02-07 04:11:00,
2013-02-06 21:22:00,30.0,12.0,-100.00,WSW,241,13.0,25.0,47,0.00,,,0.00,0.000000,,2013-02-07 04:22:00,
2013-02-06 21:31:00,30.0,12.0,-100.00,WSW,241,13.0,25.0,47,0.00,,,0.00,0.000000,,2013-02-07 04:31:00,
2013-02-06 21:53:00,29.0,12.0,-100.00,WSW,253,13.0,24.0,49,0.00,,,0.00,0.000000,,2013-02-07 04:53:00,
2013-02-06 22:02:00,29.0,12.0,-100.00,WSW,253,13.0,24.0,49,0.00,,,0.00,0.000000,,2013-02-07 05:02:00,
2013-02-06 22:12:00,29.0,12.0,-100.00,WSW,253,13.0,24.0,49,0.00,,,0.00,0.000000,,2013-02-07 05:12:00,
2013-02-06 22:21:00,29.0,12.0,-100.00,WSW,253,13.0,24.0,49,0.00,,,0.00,0.000000,,2013-02-07 05:21:00,
2013-02-06 22:32:00,29.0,12.0,-100.00,WSW,253,13.0,24.0,49,0.00,,,0.00,0.000000,,2013-02-07 05:32:00,
2013-02-06 22:52:00,28.0,10.0,-100.00,WNW,282,10.0,21.0,47,0.00,,,0.00,0.000000,,2013-02-07 05:52:00,
2013-02-06 23:02:00,28.0,10.0,-100.00,WNW,282,10.0,21.0,47,0.00,,,0.00,0.000000,,2013-02-07 06:02:00,
2013-02-06 23:11:00,28.0,10.0,-100.00,WNW,282,10.0,21.0,47,0.00,,,0.00,0.000000,,2013-02-07 06:11:00,
2013-02-06 23:22:00,28.0,10.0,-100.00,WNW,282,10.0,21.0,47,0.00,,,0.00,0.000000,,2013-02-07 06:22:00,
2013-02-06 23:32:00,28.0,10.0,-100.00,WNW,282,10.0,21.0,47,0.00,,,0.00,0.000000,,2013-02-07 06:32:00,
2013-02-06 23:52:00,27.0,12.0,-100.00,West,269,7.0,14.0,53,0.00,,,0.00,0.000000,,2013-02-07 06:52:00,